Location: Joffre
(52.3362°N, 113.5373°W)
Time: 10:35:45
(UTC+00:00)

N. Korean satellite - Pass Details

Date: 10 December 2021
Orbit: 447 x 491 km, 97.3° (Epoch: 20 January)

Event Time Altitude Azimuth Distance (km) Brightness Sun altitude
Rises 12:53:43 0° 15° (NNE) 2,466 10.2 -23.0°
Reaches altitude 10° 12:55:46 10° 17° (NNE) 1,587 9.3 -22.7°
Enters shadow 12:57:57 37° 27° (NNE) 720 7.5 -22.3°
Exits shadow 13:01:08 23° 184° (S) 1,005 8.2 -21.9°
Drops below altitude 10° 13:02:31 10° 188° (S) 1,576 9.2 -21.7°
Sets 13:04:33 0° 190° (S) 2,447 10.1 -21.3°
